This is the latest recevied weather packets stored in our database for station/object KF0EZB. If no packets are shown the sender has not sent any weather packets the latest 10 day(s).
| Time | Temp. | Humidity | Pressure | Rain* | Wind** | Luminosity | Snow |
|---|---|---|---|---|---|---|---|
| 1777771804 | 17.22° C | 41% | 1016.5 hPa | 0 mm | - | 1 W/m² | - |
| 1777771501 | 17.78° C | 40% | 1016.6 hPa | 0 mm | - | 3 W/m² | - |
| 1777771196 | 17.78° C | 39% | 1016.4 hPa | 0 mm | - | 6 W/m² | - |
| 1777770894 | 18.33° C | 37% | 1016.5 hPa | 0 mm | - | 8 W/m² | - |
| 1777770591 | 18.89° C | 35% | 1016.5 hPa | 0 mm | - | 12 W/m² | - |
| 1777770287 | 19.44° C | 34% | 1016.8 hPa | 0 mm | - | 15 W/m² | - |
| 1777769985 | 19.44° C | 33% | 1016.6 hPa | 0 mm | - | 18 W/m² | - |
| 1777769682 | 20° C | 32% | 1016.6 hPa | 0 mm | - | 20 W/m² | - |
| 1777769379 | 20° C | 30% | 1016.6 hPa | 0 mm | - | 24 W/m² | - |
| 1777769075 | 20.56° C | 30% | 1016.6 hPa | 0 mm | - | 28 W/m² | - |
| 1777768773 | 21.11° C | 30% | 1016.5 hPa | 0 mm | - | 31 W/m² | - |
| 1777768470 | 21.67° C | 29% | 1016.7 hPa | 0 mm | - | 31 W/m² | - |
| 1777768167 | 21.67° C | 29% | 1016.7 hPa | 0 mm | - | 43 W/m² | - |
| 1777767864 | 22.22° C | 28% | 1016.7 hPa | 0 mm | - | 72 W/m² | - |
| 1777767560 | 22.22° C | 27% | 1016.8 hPa | 0 mm | - | 80 W/m² | - |
| 1777767257 | 22.22° C | 27% | 1016.6 hPa | 0 mm | - | 98 W/m² | - |
| 1777766955 | 22.22° C | 27% | 1016.9 hPa | 0 mm | - | 110 W/m² | - |
| 1777766651 | 22.78° C | 27% | 1017.3 hPa | 0 mm | - | 121 W/m² | - |
| 1777766349 | 21.67° C | 28% | 1017.1 hPa | 0 mm | - | 128 W/m² | - |
| 1777766045 | 22.22° C | 27% | 1017.1 hPa | 0 mm | - | 138 W/m² | - |
| 1777765743 | 22.78° C | 27% | 1017.4 hPa | 0 mm | - | 167 W/m² | - |
| 1777765439 | 22.78° C | 27% | 1017.2 hPa | 0 mm | - | 180 W/m² | - |
| 1777765136 | 22.78° C | 27% | 1017.2 hPa | 0 mm | - | 203 W/m² | - |
| 1777764832 | 22.78° C | 27% | 1017.4 hPa | 0 mm | - | 196 W/m² | - |
| 1777764529 | 22.78° C | 26% | 1017.6 hPa | 0 mm | - | 207 W/m² | - |
* Rain latest hour (hover to see other rain measurements)
** Current wind speed in m/s (hover to see current wind gust speed)